Weather reports worldwide

Advertisment
Herstmonceux, United Kingdom (3882): temperature & dewpoint: 04.12.2018 03:00:00 - 10.12.2018 03:00:00 (GMT)Herstmonceux, United Kingdom (3882): temperature -20cm & temperature -100cm: 04.12.2018 03:00:00 - 10.12.2018 03:00:00 (GMT)Herstmonceux, United Kingdom (3882): wind speed & gusts: 04.12.2018 03:00:00 - 10.12.2018 03:00:00 (GMT)Herstmonceux, United Kingdom (3882): wind direction: 04.12.2018 03:00:00 - 10.12.2018 03:00:00 (GMT)Herstmonceux, United Kingdom (3882): reduced air pressure: 04.12.2018 03:00:00 - 10.12.2018 03:00:00 (GMT)Herstmonceux, United Kingdom (3882): visibility: 04.12.2018 03:00:00 - 10.12.2018 03:00:00 (GMT)Herstmonceux, United Kingdom (3882): sunshine duration: 04.12.2018 03:00:00 - 10.12.2018 03:00:00 (GMT)Herstmonceux, United Kingdom (3882): precipitation: 04.12.2018 03:00:00 - 10.12.2018 03:00:00 (GMT)
Date & Time tt [°C] td [°C] tt -20cm [°C] tt -100cm [°C] ff [km/h] ff [kn] fx [km/h] fx [kn] dd ppp [hPa] vv [km] sd [min] rr [mm]
10.12.2018 03:00:00 6,0 4,8 - - 8 4 - - W 1024,7 26 0 0,0
10.12.2018 02:00:00 5,5 4,3 - - 11 6 - - W 1024,3 29 0 0,0
10.12.2018 01:00:00 5,3 4,2 - - 9 5 - - W 1023,8 24 0 0,0
10.12.2018 00:00:00 5,5 4,2 - - 9 5 - - W 1023,4 35 - 0,0
09.12.2018 23:00:00 6,2 4,4 - - 9 5 - - W 1022,7 45 0 0,0
09.12.2018 22:00:00 6,4 4,1 - - 13 7 - - W 1021,7 50 0 0,0
09.12.2018 21:00:00 6,7 4,1 - - 9 5 - - W 1021,1 50 0 0,0
09.12.2018 20:00:00 8,0 4,2 - - 8 4 - - WNW 1020,4 45 0 0,0
09.12.2018 19:00:00 8,5 4,2 - - 8 4 - - WNW 1019,0 50 0 0,0
09.12.2018 18:00:00 9,0 4,6 - - 8 4 - - WNW 1018,1 50 0 0,0
09.12.2018 17:00:00 9,4 4,5 - - 9 5 - - NW 1016,7 50 0 0,0
09.12.2018 16:00:00 9,7 3,8 - - 15 8 - - NW 1015,5 50 6 0,0
09.12.2018 15:00:00 10,3 4,0 - - 18 10 - - NW 1013,7 45 36 0,0
09.12.2018 14:00:00 10,7 4,1 - - 18 10 - - NNW 1011,7 45 60 0,0
09.12.2018 13:00:00 10,6 4,3 - - 22 12 - - NW 1010,2 45 36 0,0
09.12.2018 12:00:00 10,3 6,0 - - 22 12 48 26 NNW 1008,8 40 0 0,0
09.12.2018 11:00:00 10,8 6,4 - - 22 12 - - WNW 1007,1 24 6 0,0
09.12.2018 10:00:00 10,2 6,7 - - 21 11 - - WNW 1006,0 8 0 0,0
09.12.2018 09:00:00 9,9 6,4 10,0 11,0 21 11 - - W 1004,8 17 0 0,0
09.12.2018 08:00:00 9,5 6,2 - - 21 11 - - W 1003,7 15 0 0,0
09.12.2018 07:00:00 9,6 5,6 - - 21 11 50 27 W 1002,4 16 0 0,0
09.12.2018 06:00:00 9,5 5,4 - - 21 11 48 26 W 1002,0 15 0 0,0
09.12.2018 05:00:00 9,1 5,4 - - 22 12 - - W 1001,9 13 0 0,0
09.12.2018 04:00:00 8,9 4,8 - - 21 11 55 30 W 1002,0 18 0 0,0
09.12.2018 03:00:00 8,7 5,1 - - 22 12 46 25 W 1002,0 15 0 0,0
09.12.2018 02:00:00 8,5 4,7 - - 18 10 - - W 1002,0 22 0 0,0
09.12.2018 01:00:00 8,3 5,1 - - 18 10 - - W 1001,7 17 0 0,0
09.12.2018 00:00:00 9,1 5,7 - - 22 12 - - W 1001,5 11 - 0,0
08.12.2018 23:00:00 9,0 5,6 - - 18 10 48 26 W 1001,1 15 0 0,0
08.12.2018 22:00:00 9,7 6,1 - - 18 10 - - W 1001,0 13 0 0,0
08.12.2018 21:00:00 9,8 6,1 - - 18 10 - - W 1000,3 11 0 0,0
08.12.2018 20:00:00 10,2 5,4 - - 22 12 54 29 W 1000,3 15 0 0,0
08.12.2018 19:00:00 10,8 6,6 - - 26 14 50 27 W 999,8 12 0 0,0
08.12.2018 18:00:00 11,0 8,2 - - 21 11 - - W 1000,1 19 0 0,0
08.12.2018 17:00:00 11,2 9,6 - - 22 12 67 36 W 1000,5 13 0 0,0
08.12.2018 16:00:00 11,8 11,2 - - 26 14 55 30 W 1000,6 8 0 0,6
08.12.2018 15:00:00 11,4 10,8 - - 24 13 54 29 WSW 1002,2 4,0 0 1,0
08.12.2018 14:00:00 11,1 10,3 - - 24 13 54 29 WSW 1003,8 3,9 0 0,2
08.12.2018 13:00:00 10,7 9,2 - - 21 11 52 28 W 1005,4 2,9 0 0,0
08.12.2018 12:00:00 11,1 7,5 - - 24 13 54 29 W 1006,8 11 18 0,0
08.12.2018 11:00:00 10,6 6,1 - - 24 13 52 28 W 1007,5 13 18 0,0
08.12.2018 10:00:00 10,1 5,7 - - 26 14 50 27 W 1007,5 12 0 0,0
08.12.2018 09:00:00 8,9 5,7 10,2 11,0 18 10 - - W 1007,5 13 0 0,0
08.12.2018 08:00:00 9,2 5,4 - - 18 10 54 29 W 1007,5 15 0 0,0
08.12.2018 07:00:00 9,3 4,9 - - 22 12 48 26 W 1007,0 15 0 0,0
08.12.2018 06:00:00 9,4 4,9 - - 24 13 54 29 W 1006,5 15 0 0,0
08.12.2018 05:00:00 9,4 5,1 - - 26 14 48 26 W 1006,3 14 0 0,0
08.12.2018 04:00:00 8,6 4,5 - - 21 11 54 29 W 1006,5 14 0 0,0
08.12.2018 03:00:00 9,0 5,0 - - 26 14 46 25 W 1006,4 14 0 0,0
08.12.2018 02:00:00 8,8 4,5 - - 22 12 52 28 W 1006,3 14 0 0,0
08.12.2018 01:00:00 9,0 4,8 - - 24 13 55 30 W 1006,6 14 0 0,0
08.12.2018 00:00:00 8,7 4,9 - - 21 11 48 26 W 1007,1 12 - 0,0
07.12.2018 23:00:00 8,3 4,4 - - 18 10 - - W 1007,3 15 0 0,0
07.12.2018 22:00:00 7,5 3,7 - - 21 11 - - W 1007,4 20 0 0,0
07.12.2018 21:00:00 7,0 2,9 - - 18 10 - - W 1007,1 30 0 0,0
07.12.2018 20:00:00 7,1 3,0 - - 16 9 46 25 W 1007,0 23 0 0,0
07.12.2018 19:00:00 7,4 3,0 - - 18 10 - - W 1006,3 28 0 0,0
07.12.2018 18:00:00 7,2 3,0 - - 16 9 - - W 1005,8 26 0 0,0
07.12.2018 17:00:00 7,3 3,1 - - 15 8 - - W 1004,7 17 0 0,0
07.12.2018 16:00:00 7,8 3,6 - - 18 10 - - W 1003,9 30 12 0,0
07.12.2018 15:00:00 9,1 4,4 - - 16 9 - - W 1002,9 22 18 0,0
07.12.2018 14:00:00 9,9 6,3 - - 18 10 46 25 W 1001,9 14 12 0,0
07.12.2018 13:00:00 10,3 8,5 - - 18 10 - - W 1000,5 19 6 0,0
07.12.2018 12:00:00 9,7 8,3 - - 21 11 54 29 W 1000,8 11 0 0,8
07.12.2018 11:00:00 11,7 11,2 - - 31 17 59 32 SW 999,7 9 0 2,0
07.12.2018 10:00:00 11,5 11,0 - - 31 17 55 30 SW 1001,2 4,8 0 3,4
07.12.2018 09:00:00 11,6 10,9 10,7 11,0 34 18 59 32 SW 1002,6 5 0 1,0
07.12.2018 08:00:00 12,2 11,0 - - 31 17 67 36 SW 1004,3 13 0 0,0
07.12.2018 07:00:00 12,4 11,2 - - 26 14 50 27 SW 1005,5 16 0 0,0
07.12.2018 06:00:00 12,2 11,5 - - 28 15 55 30 SW 1007,0 8 0 0,0
07.12.2018 05:00:00 12,2 12,0 - - 28 15 57 31 SW 1008,2 11 0 0,2
07.12.2018 04:00:00 12,1 11,9 - - 22 12 54 29 SW 1009,5 2,8 0 1,4
07.12.2018 03:00:00 12,3 12,1 - - 22 12 46 25 WSW 1010,6 4,9 0 1,0
07.12.2018 02:00:00 12,4 12,3 - - 21 11 46 25 WSW 1011,4 4,3 0 0,6
07.12.2018 01:00:00 12,4 12,3 - - 21 11 - - WSW 1012,5 4,4 0 0,6
07.12.2018 00:00:00 12,4 12,2 - - 16 9 48 26 WSW 1013,4 2,9 - 0,2
06.12.2018 23:00:00 12,4 12,2 - - 18 10 - - WSW 1013,8 2,6 0 1,8
06.12.2018 22:00:00 12,4 12,2 - - 18 10 - - WSW 1014,5 8 0 0,8
06.12.2018 21:00:00 12,3 12,0 - - 18 10 - - WSW 1014,9 9 0 0,4
06.12.2018 20:00:00 12,2 12,0 - - 22 12 - - WSW 1015,5 4,2 0 0,8
06.12.2018 19:00:00 12,1 11,7 - - 21 11 - - WSW 1015,4 4,7 0 0,8
06.12.2018 18:00:00 12,0 11,3 - - 16 9 - - WSW 1015,8 5 0 0,2
06.12.2018 17:00:00 12,4 10,9 - - 18 10 - - WSW 1015,9 7 0 0,0
06.12.2018 16:00:00 12,1 10,9 - - 16 9 - - WSW 1015,5 8 0 0,0
06.12.2018 15:00:00 12,1 10,7 - - 16 9 - - W 1015,8 10 0 0,0
06.12.2018 14:00:00 12,2 10,9 - - 18 10 46 25 W 1015,4 21 0 0,0
06.12.2018 13:00:00 11,9 11,2 - - 21 11 - - W 1016,1 11 0 0,0
06.12.2018 12:00:00 11,8 11,3 - - 21 11 - - W 1016,2 8 0 0,0
06.12.2018 11:00:00 11,7 11,1 - - 18 10 - - W 1016,6 1,9 0 0,0
06.12.2018 10:00:00 11,4 10,9 - - 15 8 - - WSW 1016,6 30 0 0,0
06.12.2018 09:00:00 11,5 10,7 10,4 11,0 13 7 - - WSW 1016,2 35 0 0,0
06.12.2018 08:00:00 11,0 10,8 - - 8 4 - - WSW 1015,6 8 0 0,0
06.12.2018 07:00:00 10,7 10,5 - - 8 4 - - WSW 1015,3 8 0 0,0
06.12.2018 06:00:00 10,6 10,5 - - 8 4 - - WSW 1014,9 8 0 0,0
06.12.2018 05:00:00 10,5 10,5 - - 8 4 - - WSW 1014,9 8 0 0,0
06.12.2018 04:00:00 10,3 10,3 - - 8 4 - - W 1014,5 3,1 0 0,0
06.12.2018 03:00:00 9,6 9,5 - - 9 5 - - W 1014,3 3,2 0 0,2
06.12.2018 02:00:00 9,4 9,2 - - 5 3 - - W 1013,0 2,3 0 0,0
06.12.2018 01:00:00 9,9 9,7 - - 8 4 - - WSW 1012,5 4,2 0 0,0
06.12.2018 00:00:00 10,7 10,5 - - 8 4 - - WSW 1012,0 6 - 0,0
05.12.2018 23:00:00 11,9 11,8 - - 8 4 - - W 1011,5 6 0 0,0
05.12.2018 22:00:00 12,3 12,1 - - 11 6 - - W 1011,1 4,5 0 0,0
05.12.2018 21:00:00 12,3 12,1 - - 9 5 - - WSW 1010,8 6 0 0,0
05.12.2018 20:00:00 12,3 12,1 - - 15 8 - - SW 1010,6 4,5 0 0,2
05.12.2018 19:00:00 12,2 11,9 - - 21 11 - - SW 1010,6 8 0 0,0
05.12.2018 18:00:00 11,8 11,6 - - 18 10 - - SW 1010,7 7 0 1,4
05.12.2018 17:00:00 11,6 11,3 - - 15 8 - - SSW 1011,0 2,5 0 0,8
05.12.2018 16:00:00 12,1 11,0 - - 15 8 - - SW 1011,4 7 0 0,0
05.12.2018 15:00:00 12,1 11,0 - - 16 9 - - SW 1012,5 11 0 0,0
05.12.2018 14:00:00 12,1 11,1 - - 21 11 - - SW 1013,2 9 0 0,0
05.12.2018 13:00:00 12,4 11,4 - - 16 9 - - SW 1014,0 10 0 0,0
05.12.2018 12:00:00 12,3 11,4 - - 18 10 - - SSW 1014,9 10 0 0,0
05.12.2018 11:00:00 12,0 11,5 - - 21 11 - - SW 1016,3 12 0 0,0
05.12.2018 10:00:00 11,8 11,7 - - 22 12 - - SW 1016,9 8 0 0,0
05.12.2018 09:00:00 11,6 11,5 10,0 11,0 16 9 - - SW 1016,9 7 0 0,0
05.12.2018 08:00:00 11,4 11,3 - - 15 8 - - SW 1017,0 6 0 0,4
05.12.2018 07:00:00 10,9 10,9 - - 11 6 - - SSW 1017,5 3,7 0 1,6
05.12.2018 06:00:00 10,5 10,5 - - 9 5 - - S 1018,1 2,0 0 0,8
05.12.2018 05:00:00 10,3 10,2 - - 9 5 - - S 1018,9 1,4 0 1,0
05.12.2018 04:00:00 8,8 8,6 - - 8 4 - - SE 1019,6 1,9 0 1,2
05.12.2018 03:00:00 8,4 8,0 - - 9 5 - - SSE 1020,5 3,2 0 0,6
05.12.2018 02:00:00 8,3 7,3 - - 11 6 - - SSE 1020,9 4,7 0 0,0
05.12.2018 01:00:00 8,1 6,5 - - 8 4 - - SE 1021,5 35 0 0,0
05.12.2018 00:00:00 6,8 4,6 - - 8 4 - - E 1022,1 50 - 0,2
04.12.2018 23:00:00 6,1 5,2 - - 8 4 - - E 1022,8 45 0 0,0
04.12.2018 22:00:00 5,7 4,9 - - 5 3 - - ENE 1023,3 23 0 0,2
04.12.2018 21:00:00 5,9 4,8 - - 4 2 - - ESE 1023,9 15 0 0,2
04.12.2018 20:00:00 5,9 4,5 - - 0 0 - - N 1024,5 16 0 0,2
04.12.2018 19:00:00 6,8 3,3 - - 5 3 - - S 1024,1 10 0 0,4
04.12.2018 18:00:00 6,4 4,2 - - 2 1 - - ENE 1024,4 15 0 0,0
04.12.2018 17:00:00 6,8 4,0 - - 2 1 - - ESE 1023,8 17 0 0,0
04.12.2018 16:00:00 7,2 3,9 - - 2 1 - - S 1023,7 50 0 0,0
04.12.2018 15:00:00 8,5 4,4 - - 5 3 - - S 1023,3 50 24 0,0
04.12.2018 14:00:00 10,7 4,1 - - 5 3 - - S 1022,9 23 54 0,0
04.12.2018 13:00:00 11,0 4,5 - - 4 2 - - S 1022,7 40 60 0,0
04.12.2018 12:00:00 8,8 4,2 - - 4 2 - - NNE 1022,8 27 60 0,0
04.12.2018 11:00:00 8,5 5,6 - - 2 1 - - NE 1022,7 35 48 0,0
04.12.2018 10:00:00 4,4 3,6 - - 8 4 - - N 1022,5 25 6 0,0
04.12.2018 09:00:00 3,2 2,6 10,5 10,9 5 3 - - NNW 1021,5 6 0 0,0
04.12.2018 08:00:00 2,8 2,2 - - 5 3 - - NW 1020,8 18 0 0,0
04.12.2018 07:00:00 3,0 2,4 - - 5 3 - - NNW 1019,6 22 0 0,0
04.12.2018 06:00:00 3,7 3,2 - - 8 4 - - NW 1018,6 29 0 0,0
04.12.2018 05:00:00 4,2 3,5 - - 8 4 - - NNW 1017,5 30 0 0,0
04.12.2018 04:00:00 5,0 4,0 - - 8 4 - - NW 1016,5 40 0 0,0
04.12.2018 03:00:00 5,4 4,4 - - 4 2 - - W 1015,5 40 0 0,0

tt = temperature
td = dewpoint
tt -20cm = temperature -20cm
tt -100cm = temperature -100cm
ff = wind speed
fx = gusts
dd = wind direction
ppp = reduced air pressure
vv = visibility
sd = sunshine duration
rr = precipitation

Next stations